When you browse on this site, cookies collect data to enhance your experience and personalize the content and advertising you see.
Visit our Privacy Policy to learn more. By continuing to use the site, you agree to this use of cookies and data.
  • En España
  • Lista de países
  • Para 7 días
  • Temperatura del agua
  • Mapa Satelital
  • El tiempo en el mapa
  • Informadores
  • user-avatar
    Iniciar sesión

    Tiempo cada hora La Rioja

    Hoy, 20 Enero, Domingo

    Tiempo Temperatura Precipitaciones Viento Presión Humedad
    00:00 +24°C° 0 mm 2 mps 716 mmHg 68%
    01:00 +23°C° 0 mm 2 mps 716 mmHg 70%
    02:00 +23°C° 0 mm 1 mps 716 mmHg 72%
    03:00 +22°C° 0 mm 1 mps 715 mmHg 74%
    04:00 +22°C° 0 mm 1 mps 715 mmHg 75%
    05:00 +22°C° 0 mm 1 mps 715 mmHg 77%
    06:00 +21°C° 0 mm 2 mps 715 mmHg 74%
    07:00 +23°C° 0 mm 2 mps 715 mmHg 72%
    08:00 +23°C° 0 mm 2 mps 715 mmHg 70%
    09:00 +25°C° 0 mm 2 mps 714 mmHg 65%
    10:00 +27°C° 0 mm 2 mps 714 mmHg 59%
    11:00 +28°C° 0 mm 3 mps 713 mmHg 54%
    12:00 +29°C° 0 mm 3 mps 713 mmHg 51%
    13:00 +31°C° 0 mm 3 mps 712 mmHg 47%
    14:00 +33°C° 0 mm 4 mps 711 mmHg 44%
    15:00 +34°C° 0 mm 4 mps 711 mmHg 43%
    16:00 +34°C° 0 mm 4 mps 710 mmHg 42%
    17:00 +34°C° 0 mm 4 mps 710 mmHg 41%
    18:00 +33°C° 0 mm 3 mps 710 mmHg 44%
    19:00 +31°C° 0 mm 3 mps 711 mmHg 47%
    20:00 +30°C° 0 mm 3 mps 711 mmHg 50%
    21:00 +29°C° 0 mm 3 mps 712 mmHg 53%
    22:00 +28°C° 0 mm 2 mps 713 mmHg 57%
    23:00 +27°C° 0 mm 2 mps 713 mmHg 61%

    Mañana, 21 Enero, Lunes

    Tiempo Temperatura Precipitaciones Viento Presión Humedad
    00:00 +27°C° 0 mm 1 mps 713 mmHg 64%
    01:00 +26°C° 0 mm 1 mps 713 mmHg 66%
    02:00 +26°C° 0 mm 1 mps 712 mmHg 69%
    03:00 +25°C° 0 mm 1 mps 712 mmHg 71%
    04:00 +25°C° 0 mm 1 mps 712 mmHg 73%
    05:00 +24°C° 0 mm 2 mps 712 mmHg 76%
    06:00 +25°C° 0 mm 2 mps 713 mmHg 73%
    07:00 +25°C° 0 mm 2 mps 713 mmHg 71%
    08:00 +26°C° 0 mm 2 mps 714 mmHg 68%
    09:00 +28°C° 0 mm 3 mps 714 mmHg 62%
    10:00 +29°C° 0 mm 3 mps 714 mmHg 56%
    11:00 +31°C° 0 mm 3 mps 714 mmHg 50%
    12:00 +33°C° 0 mm 3 mps 714 mmHg 47%
    13:00 +34°C° 0 mm 3 mps 713 mmHg 43%
    14:00 +35°C° 0 mm 3 mps 712 mmHg 40%
    15:00 +35°C° 0 mm 3 mps 712 mmHg 39%
    16:00 +36°C° 0 mm 3 mps 711 mmHg 38%
    17:00 +36°C° 0 mm 3 mps 711 mmHg 37%
    18:00 +35°C° 0 mm 2 mps 711 mmHg 39%
    19:00 +33°C° 0 mm 1 mps 712 mmHg 41%
    20:00 +32°C° 0 mm 1 mps 712 mmHg 43%
    21:00 +31°C° 0 mm 1 mps 712 mmHg 46%
    22:00 +31°C° 0 mm 1 mps 713 mmHg 49%
    23:00 +30°C° 0 mm 1 mps 713 mmHg 52%

    Pasado mañana, 22 Enero, Martes

    Tiempo Temperatura Precipitaciones Viento Presión Humedad
    00:00 +29°C° 0 mm 1 mps 713 mmHg 54%
    01:00 +29°C° 0 mm 1 mps 712 mmHg 57%
    02:00 +26°C° 0 mm 0 mps 712 mmHg 59%
    03:00 +26°C° 0 mm 0 mps 711 mmHg 62%
    04:00 +25°C° 0 mm 0 mps 711 mmHg 64%
    05:00 +25°C° 0 mm 0 mps 711 mmHg 66%
    06:00 +28°C° 0 mm 1 mps 711 mmHg 62%
    07:00 +29°C° 0 mm 1 mps 711 mmHg 58%
    08:00 +31°C° 0 mm 1 mps 712 mmHg 53%
    09:00 +32°C° 0 mm 2 mps 711 mmHg 50%
    10:00 +34°C° 0 mm 2 mps 711 mmHg 46%
    11:00 +36°C° 0 mm 2 mps 711 mmHg 42%
    12:00 +37°C° 0 mm 3 mps 711 mmHg 40%
    13:00 +38°C° 0 mm 3 mps 710 mmHg 37%
    14:00 +39°C° 0 mm 3 mps 709 mmHg 34%
    15:00 +39°C° 0 mm 3 mps 709 mmHg 34%
    16:00 +40°C° 0 mm 3 mps 709 mmHg 33%
    17:00 +40°C° 0 mm 3 mps 708 mmHg 32%
    18:00 +39°C° 0 mm 2 mps 709 mmHg 34%
    19:00 +38°C° 0 mm 2 mps 710 mmHg 36%
    20:00 +37°C° 0 mm 2 mps 710 mmHg 38%
    21:00 +36°C° 0.4 mm 2 mps 711 mmHg 42%
    22:00 +35°C° 0.4 mm 2 mps 712 mmHg 45%
    23:00 +34°C° 0.4 mm 2 mps 713 mmHg 48%

    23 Enero, Miércoles

    Tiempo Temperatura Precipitaciones Viento Presión Humedad
    00:00 +34°C° 0.1 mm 2 mps 712 mmHg 48%
    01:00 +32°C° 0.1 mm 2 mps 712 mmHg 49%
    02:00 +33°C° 0.1 mm 3 mps 712 mmHg 49%
    03:00 +33°C° 0.1 mm 3 mps 712 mmHg 48%
    04:00 +31°C° 0.1 mm 2 mps 712 mmHg 47%
    05:00 +31°C° 0.1 mm 2 mps 712 mmHg 47%
    06:00 +32°C° 0.1 mm 2 mps 713 mmHg 43%
    07:00 +34°C° 0.1 mm 2 mps 714 mmHg 40%
    08:00 +35°C° 0.1 mm 2 mps 714 mmHg 37%
    09:00 +36°C° 0 mm 3 mps 714 mmHg 36%
    10:00 +38°C° 0 mm 3 mps 714 mmHg 35%
    11:00 +39°C° 0 mm 3 mps 714 mmHg 33%
    12:00 +40°C° 0 mm 3 mps 713 mmHg 33%
    13:00 +40°C° 0 mm 3 mps 712 mmHg 32%
    14:00 +42°C° 0 mm 4 mps 711 mmHg 32%
    15:00 +42°C° 0 mm 3 mps 711 mmHg 31%
    16:00 +42°C° 0 mm 3 mps 710 mmHg 31%
    17:00 +42°C° 0 mm 3 mps 710 mmHg 31%
    18:00 +40°C° 0.3 mm 3 mps 710 mmHg 33%
    19:00 +39°C° 0.3 mm 3 mps 711 mmHg 35%
    20:00 +38°C° 0.3 mm 3 mps 711 mmHg 37%
    21:00 +37°C° 0.1 mm 3 mps 712 mmHg 40%
    22:00 +36°C° 0.1 mm 3 mps 712 mmHg 43%
    23:00 +34°C° 0.1 mm 2 mps 713 mmHg 45%

    24 Enero, Jueves

    Tiempo Temperatura Precipitaciones Viento Presión Humedad
    00:00 +34°C° 0 mm 2 mps 712 mmHg 50%
    01:00 +32°C° 0 mm 2 mps 712 mmHg 55%
    02:00 +31°C° 0 mm 2 mps 712 mmHg 59%
    03:00 +31°C° 0 mm 1 mps 711 mmHg 60%
    04:00 +30°C° 0 mm 1 mps 711 mmHg 61%
    05:00 +28°C° 0 mm 0 mps 710 mmHg 62%
    06:00 +31°C° 0 mm 1 mps 711 mmHg 61%
    07:00 +31°C° 0 mm 1 mps 711 mmHg 60%
    08:00 +32°C° 0 mm 1 mps 711 mmHg 59%
    09:00 +33°C° 0 mm 1 mps 711 mmHg 54%
    10:00 +35°C° 0 mm 2 mps 711 mmHg 49%
    11:00 +37°C° 0 mm 2 mps 710 mmHg 45%
    12:00 +38°C° 0 mm 3 mps 709 mmHg 41%
    13:00 +39°C° 0 mm 3 mps 709 mmHg 38%
    14:00 +41°C° 0 mm 4 mps 708 mmHg 34%
    15:00 +42°C° 0 mm 4 mps 708 mmHg 32%
    16:00 +42°C° 0 mm 4 mps 707 mmHg 30%
    17:00 +43°C° 0 mm 3 mps 707 mmHg 28%
    18:00 +42°C° 0 mm 3 mps 707 mmHg 31%
    19:00 +39°C° 0 mm 2 mps 708 mmHg 34%
    20:00 +38°C° 0 mm 2 mps 708 mmHg 36%
    21:00 +37°C° 0.2 mm 2 mps 708 mmHg 37%
    22:00 +36°C° 0.2 mm 2 mps 709 mmHg 38%
    23:00 +36°C° 0.2 mm 2 mps 709 mmHg 39%

    25 Enero, Viernes

    Tiempo Temperatura Precipitaciones Viento Presión Humedad
    00:00 +35°C° 0.2 mm 2 mps 709 mmHg 39%
    01:00 +35°C° 0.2 mm 2 mps 709 mmHg 39%
    02:00 +34°C° 0.2 mm 2 mps 708 mmHg 38%
    03:00 +34°C° 0.1 mm 2 mps 708 mmHg 38%
    04:00 +32°C° 0.1 mm 2 mps 708 mmHg 37%
    05:00 +32°C° 0.1 mm 2 mps 709 mmHg 36%
    06:00 +34°C° 0.2 mm 3 mps 710 mmHg 34%
    07:00 +36°C° 0.2 mm 3 mps 711 mmHg 33%
    08:00 +37°C° 0.2 mm 3 mps 712 mmHg 31%
    09:00 +39°C° 0.6 mm 5 mps 712 mmHg 32%
    10:00 +40°C° 0.6 mm 6 mps 713 mmHg 34%
    11:00 +41°C° 0.6 mm 7 mps 714 mmHg 35%
    12:00 +39°C° 1.9 mm 7 mps 713 mmHg 40%
    13:00 +38°C° 1.9 mm 8 mps 713 mmHg 45%
    14:00 +37°C° 1.9 mm 8 mps 713 mmHg 50%
    15:00 +36°C° 1.3 mm 7 mps 713 mmHg 48%
    16:00 +36°C° 1.3 mm 5 mps 713 mmHg 47%
    17:00 +36°C° 1.3 mm 4 mps 713 mmHg 45%
    18:00 +35°C° 1.6 mm 3 mps 714 mmHg 50%
    19:00 +34°C° 1.6 mm 3 mps 714 mmHg 54%
    20:00 +32°C° 1.6 mm 2 mps 715 mmHg 59%
    21:00 +31°C° 0.3 mm 2 mps 715 mmHg 60%
    22:00 +31°C° 0.3 mm 2 mps 716 mmHg 62%
    23:00 +30°C° 0.3 mm 2 mps 716 mmHg 64%
    Mostrar más